星链-2035 (STARLINK-2035 )

导读

STARLINK-2035是美国SpaceX公司星链星座的一员,于2021年2月16日发射入轨。星链是全球规模最大的低轨卫星互联网星座,这颗卫星承担低轨宽带通信服务,为地面用户提供互联网接入支持,助力星链实现全球覆盖,支撑包括民用通信等多场景应用,是星链星座组网进程中重要组成部分,推动了低轨卫星互联网商业化发展。

基本信息
目录编号:
47651
目录名称:
STARLINK-2035
国际标识:
2021-012AH
轨道中心:
EARTH
卫星名称:
星链-2035
卫星全名:
星链-2035 (STARLINK-2035 )
卫星状态:
已陨落 最后检测时间 2025-03-30
发射日期:
2021-02-16 UTC
国别 :
美国 (US)
星等 :
--
该卫星已列入 空间交会检测服务 Space Conjunction Data Service (SCDS) ,当前飞行风险评估等级: 无高风险
轨道信息
数据来源 国际轨道数据
星历时间: 2025-03-30T13:47:36+0800
轨道信息已过期530天
半长轴: 6528.782km
偏心率: 0.0002537
轨道倾角: 53.028°
近地点辐角 285.930°
升交点赤经 151.828°
平近点角 186.089°
近地点: 148.99km
远地点: 152.304km
周期: 87.500分钟
每日圈数: 16.457148
详细信息
固有亮度:
5
最大亮度:
2.5
卫星平台:
Starlink V1.0
覆盖范围:
全球
运营商:
太空探索技术公司
运营商所在国:
美国
制造商(研发单位):
太空探索技术公司
制造商所在国:
美国
使用方式:
暂无
卫星简介
星链(Starlink)计划是由太空探索技术公司(SpaceX)提出的一个巨型低轨卫星互联网星座项目,计划在2019年至2024年间在太空搭建由约1.2万颗卫星组成的“星链”网络,其中1584颗将部署在地球上空550千米处的近地轨道,并从2020年开始工作。该卫星仍在工作。
与全量物体交会距离演化趋势
与全量物体交会风险概率演化趋势